Weather History for Bangor, ME

Change the Weather History Date:

Tuesday, November 13, 2012

  Actual Average Record
Temperature  
Mean Temperature 46 °F 38 °F  
Max Temperature 59 °F 46 °F 62 °F (2010)
Min Temperature 32 °F 30 °F 10 °F (1939)
Degree Days  
Heating Degree Days 19 27  
Month to date heating degree days 344 325  
Since 1 July heating degree days 1027 1151  
Cooling Degree Days 0 0  
Month to date cooling degree days 0 0  
Year to date cooling degree days 395 318  
Moisture  
Dew Point 47 °F    
Average Humidity 85    
Maximum Humidity 100    
Minimum Humidity 70    
Precipitation  
Precipitation 0.20 in 0.14 in 1.56 in (1975)
Month to date precipitation 1.13 1.78  
Year to date precipitation 38.71 36.03  
Snow  
Snow 0.00 in 0.00 in 0.80 in (1947)
Month to date snowfall 4.0 0.3  
Since 1 July snowfall 4.0 0.4  
Since 1 September snowfall 4.0 0.4  
Snow Depth 0.00 in    
Sea Level Pressure  
Sea Level Pressure 30.20 in    
Wind  
Wind Speed 12 mph (West)    
Max Wind Speed 25 mph    
Max Gust Speed 39 mph    
Visibility 8 miles    
Events Rain    
T = Trace of Precipitation, MM = Missing Value Source: NWS Daily Summary

Daily Weather History Graph

Daily Weather History Graph

Search for Another Location

Airport:

Trip Planner

Search our weather history database for the weather conditions in past years. The results will help you decide how hot, cold, wet, or windy it might be!

Date:

Astronomy

Nov. 13, 2012 Rise Set
Actual Time 6:30 AM EST 4:08 PM EST
Civil Twilight 5:58 AM EST 4:39 PM EST
Nautical Twilight 5:23 AM EST 5:15 PM EST
Astronomical Twilight 4:48 AM EST 5:49 PM EST
Moon 6:04 AM EST (11/13) 3:57 PM EST (11/13)
Length of Visible Light 10h 41m
Length of Day
9h 38m
Waning Crescent, 0% of the Moon is Illuminated
Nov 13
Waning Crescent
Nov 13
New
Nov 20
First Quarter
Nov 28
Full
Dec 6
Last Quarter

Hourly Weather History & Observations

Time (EST) Temp. Windchill Dew Point Humidity Pressure Visibility Wind Dir Wind Speed Gust Speed Precip Events Conditions
12:45 AM 55.4 °F - 53.6 °F 94% 30.21 in 10.0 mi South 15.0 mph 26.5 mph N/A   Overcast
12:53 AM 55.9 °F - 54.0 °F 93% 30.21 in 10.0 mi South 15.0 mph 21.9 mph N/A   Overcast
1:53 AM 55.9 °F - 54.0 °F 93% 30.20 in 10.0 mi South 12.7 mph 23.0 mph N/A   Mostly Cloudy
2:11 AM 55.4 °F - 53.6 °F 94% 30.20 in 10.0 mi South 10.4 mph - N/A   Mostly Cloudy
2:31 AM 55.4 °F - 53.6 °F 94% 30.19 in 10.0 mi South 13.8 mph - N/A   Overcast
2:53 AM 55.9 °F - 55.0 °F 97% 30.16 in 10.0 mi South 15.0 mph 24.2 mph N/A   Overcast
3:07 AM 55.4 °F - 55.4 °F 100% 30.16 in 10.0 mi South 10.4 mph - N/A   Overcast
3:21 AM 57.2 °F - 55.4 °F 94% 30.15 in 10.0 mi South 15.0 mph 21.9 mph N/A   Overcast
3:53 AM 57.0 °F - 55.0 °F 93% 30.14 in 10.0 mi South 15.0 mph 23.0 mph N/A   Overcast
4:53 AM 57.0 °F - 55.9 °F 96% 30.12 in 10.0 mi South 17.3 mph 25.3 mph N/A   Overcast
5:53 AM 57.0 °F - 55.9 °F 96% 30.10 in 8.0 mi South 20.7 mph 28.8 mph 0.00 in Rain Light Rain
6:28 AM 57.2 °F - 55.4 °F 94% 30.11 in 5.0 mi South 17.3 mph 25.3 mph 0.00 in Rain Light Rain
6:47 AM 57.2 °F - 55.4 °F 94% 30.10 in 5.0 mi South 20.7 mph 27.6 mph 0.01 in Rain Light Rain
6:53 AM 57.0 °F - 55.9 °F 96% 30.10 in 5.0 mi South 18.4 mph 27.6 mph 0.01 in   Overcast
7:02 AM 57.2 °F - 55.4 °F 94% 30.11 in 5.0 mi South 17.3 mph 24.2 mph N/A   Overcast
7:53 AM 57.9 °F - 55.9 °F 93% 30.11 in 5.0 mi South 13.8 mph 21.9 mph N/A   Overcast
8:53 AM 59.0 °F - 57.0 °F 93% 30.09 in 10.0 mi South 13.8 mph 21.9 mph N/A   Overcast
9:34 AM 53.6 °F - 51.8 °F 94% 30.13 in 4.0 mi WNW 11.5 mph 28.8 mph 0.04 in Rain Heavy Rain
9:53 AM 51.1 °F - 48.9 °F 92% 30.14 in 10.0 mi WNW 4.6 mph - 0.04 in Rain Light Rain
10:38 AM 51.8 °F - 48.2 °F 88% 30.15 in 9.0 mi Calm Calm - 0.01 in Rain Light Rain
10:53 AM 50.0 °F - 48.9 °F 96% 30.15 in 3.0 mi Calm Calm - 0.02 in Rain Light Rain
11:28 AM 50.0 °F - 48.2 °F 94% 30.16 in 1.5 mi West 4.6 mph - 0.01 in Rain Light Rain
11:53 AM 48.9 °F - 48.0 °F 97% 30.17 in 1.5 mi NW 9.2 mph - 0.03 in Rain Light Rain
12:23 PM 50.0 °F - 48.2 °F 94% 30.16 in 6.0 mi NNW 4.6 mph - 0.00 in   Overcast
12:33 PM 48.2 °F - 46.4 °F 93% 30.16 in 6.0 mi NNW 4.6 mph - 0.00 in   Overcast
12:53 PM 48.9 °F - 48.0 °F 97% 30.17 in 10.0 mi NW 4.6 mph - 0.00 in Rain Light Rain
1:24 PM 48.2 °F - 48.2 °F 100% 30.16 in 9.0 mi NW 3.5 mph - 0.01 in Rain Light Rain
1:53 PM 48.9 °F - 46.9 °F 93% 30.17 in 7.0 mi NW 4.6 mph - 0.04 in Rain Light Rain
2:01 PM 48.2 °F - 46.4 °F 93% 30.16 in 8.0 mi NNW 11.5 mph - 0.00 in Rain Light Rain
2:50 PM 44.6 °F 36.9 °F 42.8 °F 93% 30.21 in 6.0 mi NNW 18.4 mph 24.2 mph 0.04 in Rain Light Rain
2:53 PM 43.0 °F 35.1 °F 41.0 °F 93% 30.22 in 6.0 mi NW 17.3 mph - 0.04 in Rain Light Rain
3:26 PM 42.8 °F 36.2 °F 37.4 °F 81% 30.24 in 10.0 mi NW 12.7 mph 18.4 mph 0.01 in Rain Light Rain
3:53 PM 41.0 °F 35.8 °F 37.0 °F 86% 30.25 in 10.0 mi NW 8.1 mph 17.3 mph 0.02 in Rain Light Rain
4:25 PM 39.2 °F 35.0 °F 37.4 °F 93% 30.26 in 10.0 mi NW 5.8 mph - 0.00 in   Overcast
4:53 PM 41.0 °F 38.0 °F 37.9 °F 89% 30.28 in 10.0 mi WNW 4.6 mph - 0.00 in   Overcast
5:53 PM 39.9 °F 32.1 °F 34.0 °F 79% 30.32 in 10.0 mi NNW 13.8 mph 20.7 mph N/A   Overcast
6:53 PM 39.0 °F 32.3 °F 32.0 °F 76% 30.34 in 10.0 mi NW 10.4 mph - N/A   Overcast
7:53 PM 39.0 °F 35.7 °F 32.0 °F 76% 30.37 in 10.0 mi NW 4.6 mph - N/A   Overcast
8:53 PM 37.9 °F 30.9 °F 30.9 °F 76% 30.39 in 10.0 mi NW 10.4 mph - N/A   Overcast
9:53 PM 37.9 °F 31.5 °F 28.9 °F 70% 30.40 in 10.0 mi NW 9.2 mph - N/A   Overcast
10:53 PM 34.0 °F 26.6 °F 28.0 °F 79% 30.41 in 10.0 mi NW 9.2 mph - N/A   Partly Cloudy
11:53 PM 33.1 °F 30.0 °F 27.0 °F 78% 30.42 in 10.0 mi WNW 3.5 mph - N/A   Clear